[[{"header":{"parameterUnit":"m.s-1","parameterCategory":1,"la1":30.2991,"la2":30.254,"lo1":-89.0895,"lo2":-89.0444,"dy":0.0017,"dx":0.0017,"nx":28,"ny":28,"refTime":"2024-12-14T03:00:00:Z","depth":0,"parameterNumber":2,"parameterNumberName":"U-component_of_WINDS"},"data":[0,0,0,0,0,0,0,0,0,0,0,0,0,0,0,0,0,0,0,0,0,0,0,0,0,0,0,0,0,0,0,0,0,0,0,0,0,0,0,0,0,0,0,0,0,0,0,0,0,0,0,0,0,0,0,0,0,0,-6.2518,-6.2518,0,-6.2491,-6.249,-6.249,-6.2318,-6.2314,-6.231,-6.2306,-6.2277,-6.228,-6.2283,0,0,0,0,0,0,0,0,0,0,0,0,0,-6.2423,-6.2425,-6.2518,-6.2518,-6.2517,-6.2491,-6.249,-6.249,-6.2319,-6.2314,-6.2308,-6.2304,-6.2276,-6.228,-6.2284,0,0,0,0,0,0,0,0,0,0,0,0,0,-6.2437,-6.2426,-6.2518,-6.2429,-6.242,-6.2491,-6.249,-6.249,-6.232,-6.2313,-6.2307,-6.2301,-6.2275,-6.228,-6.2284,-6.2438,0,0,-6.2299,-6.2301,0,0,0,0,0,0,0,0,-6.2436,-6.244,-6.2442,-6.2435,-6.2426,-6.2401,-6.2446,-6.2472,-6.2321,-6.2358,-6.2306,-6.2298,-6.2324,-6.2324,-6.2332,-6.2437,-6.2436,-6.2299,-6.2302,-6.2304,-6.2305,0,0,0,0,0,0,0,-6.2435,-6.244,-6.2507,-6.2442,-6.2433,-6.239,-6.2385,-6.245,-6.2376,-6.2354,-6.2342,-6.2341,-6.2318,-6.2328,-6.233,-6.2435,-6.2299,-6.2303,-6.2306,-6.2308,-6.2665,-6.2672,0,0,0,0,0,0,-6.2447,-6.2441,-6.2508,-6.2506,-6.2416,-6.2397,-6.2391,-6.2416,-6.2375,-6.2363,-6.2346,-6.2333,-6.2323,-6.2325,-6.2329,-6.2506,-6.2304,-6.2308,-6.2311,-6.2659,-6.2667,-6.2674,0,0,0,0,0,0,-6.2445,-6.2454,-6.2509,-6.247,-6.2474,-6.2405,-6.2434,-6.2418,-6.2428,-6.2369,-6.2355,-6.2371,-6.2319,-6.2322,-6.2412,-6.2503,-6.231,-6.2315,-6.2651,-6.2661,-6.267,-6.2863,0,0,0,0,0,0,-6.2443,-6.2455,-6.2513,-6.2473,-6.2477,-6.2594,-6.2439,-6.2422,-6.2437,-6.2419,-6.2388,-6.2377,-6.2314,-6.2406,-6.2417,-6.2506,-6.2318,-6.2642,-6.2655,-6.2667,-6.2848,-6.2878,-6.2904,0,0,0,0,0,-6.2441,-6.2568,-6.2516,-6.2525,-6.2547,-6.2599,-6.2601,-6.2526,-6.2445,-6.2502,-6.2464,-6.2378,-6.2492,-6.2417,-6.2428,-6.2519,-6.2636,-6.2652,-6.2666,-6.2836,-6.2872,-6.2904,0,0,0,0,0,0,-6.2619,-6.2561,-6.2503,-6.2621,-6.2617,-6.257,-6.264,-6.2568,-6.2586,-6.2569,-6.2475,-6.247,-6.2574,-6.2555,-6.2473,-6.2667,-6.2549,-6.2567,-6.2674,-6.2709,-6.2736,-6.2738,-6.2322,0,0,0,0,0,-6.2672,-6.2719,-6.2666,-6.2775,-6.2776,-6.2709,-6.2729,-6.2672,-6.2663,-6.266,-6.2628,-6.2623,-6.2658,-6.2682,-6.2711,-6.2845,-6.2836,-6.2914,-6.2942,-6.2965,-6.2981,-6.3051,-6.3085,-6.2723,-6.2723,-6.2723,0,0,-6.2782,-6.2756,-6.2791,-6.281,-6.28,-6.2851,-6.2708,-6.2768,-6.2805,-6.2669,-6.2752,-6.2729,-6.2717,-6.2831,-6.2879,-6.2819,-6.308,-6.2984,-6.3003,-6.3007,-6.307,-6.3105,-6.3135,-6.2734,-6.2732,-6.273,0,0,-6.3008,-6.2994,-6.3083,-6.3076,-6.3063,-6.3018,-6.304,-6.3005,-6.2985,-6.3067,-6.2966,-6.3009,-6.3071,-6.3066,-6.3073,-6.33,-6.3221,-6.3313,-6.3458,-6.3528,-6.3556,-6.3581,-6.3662,-6.3692,-6.3329,-6.333,-6.333,0,-6.3146,-6.3219,-6.3138,-6.3205,-6.3216,-6.3097,-6.3187,-6.3184,-6.3181,-6.3192,-6.3125,-6.32,-6.3184,-6.3295,-6.3351,-6.336,-6.3382,-6.3315,-6.3559,-6.3583,-6.3605,-6.3681,-6.3712,-6.3341,-6.3339,-6.3338,-6.3337,0,-6.3389,-6.3442,-6.3516,-6.3516,-6.3536,-6.3615,-6.3546,-6.3576,-6.3519,-6.3481,-6.3567,-6.3544,-6.3566,-6.3588,-6.3532,-6.3692,-6.3655,-6.3575,-6.3455,-6.3652,-6.3721,-6.375,-6.3357,-6.3353,-6.3349,-6.3347,0,0,-6.3724,-6.3681,-6.371,-6.3709,-6.3687,-6.3725,-6.3799,-6.3821,-6.3849,-6.3852,-6.3911,-6.3967,-6.3893,-6.39,-6.3843,-6.3904,-6.4086,-6.3816,-6.3815,-6.3867,-6.4261,-6.4321,-6.4356,-6.4035,-6.404,-6.4044,-6.4262,0,-6.394,-6.4063,-6.3994,-6.4126,-6.4174,-6.4063,-6.4127,-6.4121,-6.4089,-6.4124,-6.4088,-6.4129,-6.4029,-6.4033,-6.4089,-6.4053,-6.4164,-6.4036,-6.4089,-6.4091,-6.4094,-6.4392,-6.4454,-6.4661,-6.4289,-6.4293,-6.4297,0,-6.4208,-6.4223,-6.4361,-6.4331,-6.4348,-6.4407,-6.4422,-6.4458,-6.4449,-6.4422,-6.4432,-6.436,-6.443,-6.4314,-6.4409,-6.4324,-6.4342,-6.4328,-6.4334,-6.4334,-6.4205,-6.44,-6.4725,-6.4756,-6.4339,-6.4335,-6.4332,0,-6.4438,-6.4493,-6.4582,-6.4585,-6.4553,-6.4597,-6.4585,-6.457,-6.4589,-6.4603,-6.4613,-6.4636,-6.4648,-6.4667,-6.4603,-6.4524,-6.4708,-6.4586,-6.4687,-6.4689,-6.4728,-6.4727,-6.506,-6.4743,-6.4743,-6.4742,-6.4741,0,-6.4685,-6.4774,-6.4685,-6.474,-6.4837,-6.4757,-6.4854,-6.4831,-6.4819,-6.4868,-6.4774,-6.4822,-6.4736,-6.4775,-6.4726,-6.4813,-6.482,-6.4799,-6.4785,-6.4807,-6.4809,-6.4816,-6.4799,-6.475,-6.4748,-6.4747,-6.4745,0,-6.4957,-6.4901,-6.4991,-6.4954,-6.4947,-6.502,-6.4987,-6.5037,-6.5,-6.5063,-6.5073,-6.5014,-6.5056,-6.4995,-6.503,-6.4997,-6.5117,-6.5082,-6.512,-6.5109,-6.5213,-6.5204,-6.5561,-6.5604,-6.5262,-6.5265,-6.5268,0,-6.5117,-6.5183,-6.5154,-6.518,-6.5174,-6.5218,-6.5236,-6.5161,-6.5185,-6.5181,-6.5231,-6.5265,-6.5288,-6.536,-6.5321,-6.5348,-6.5311,-6.5435,-6.5314,-6.5335,-6.5312,-6.5308,-6.5314,-6.5459,-6.5463,-6.5466,-6.5469,0,-6.5408,-6.5378,-6.5409,-6.5431,-6.5456,-6.547,-6.5476,-6.5503,-6.5425,-6.5456,-6.5498,-6.5516,-6.5553,-6.5588,-6.5605,-6.5593,-6.5519,-6.5508,-6.5532,-6.5554,-6.5574,-6.5564,-6.5186,-6.5499,-6.5496,-6.5494,-6.5492,-6.5491,-6.5628,-6.5681,-6.567,-6.5707,-6.5705,-6.5714,-6.5759,-6.5728,-6.5762,-6.5786,-6.574,-6.5794,-6.5785,-6.58,-6.5797,-6.5838,-6.5784,-6.582,-6.5829,-6.5838,-6.5854,-6.5569,-6.5841,-6.584,-6.5839,-6.5839,-6.5838,0,-6.5913,-6.5901,-6.5936,-6.5949,-6.598,-6.5909,-6.5913,-6.5942,-6.5991,-6.5989,-6.6015,-6.6064,-6.6098,-6.6063,-6.609,-6.613,-6.6097,-6.614,-6.6135,-6.6134,-6.5901,-6.5877,-6.6166,-6.6166,-6.6166,-6.6166,-6.6166,-6.6166,-6.6064,-6.6151,-6.6121,-6.6206,-6.6192,-6.6245,-6.6253,-6.6262,-6.626,-6.6319,-6.6347,-6.6324,-6.6309,-6.6336,-6.6364,-6.6353,-6.6367,-6.6422,-6.6399,-6.6182,-6.615,-6.6119,-6.6095,-6.6426,-6.6427,-6.6627,-6.6629,-6.663]},{"header":{"parameterUnit":"m.s-1","parameterCategory":1,"la1":30.2991,"la2":30.254,"lo1":-89.0895,"lo2":-89.0444,"dy":0.0017,"dx":0.0017,"nx":28,"ny":28,"refTime":"2024-12-14T03:00:00:Z","depth":0,"parameterNumber":3,"parameterNumberName":"V-component_of_WINDS"},"data":[0,0,0,0,0,0,0,0,0,0,0,0,0,0,0,0,0,0,0,0,0,0,0,0,0,0,0,0,0,0,0,0,0,0,0,0,0,0,0,0,0,0,0,0,0,0,0,0,0,0,0,0,0,0,0,0,0,0,0.0908,0.0907,0,0.0832,0.0831,0.083,0.0816,0.0816,0.0817,0.0818,0.0739,0.0737,0.0734,0,0,0,0,0,0,0,0,0,0,0,0,0,0.104,0.1037,0.0908,0.0907,0.0906,0.0832,0.0831,0.083,0.0816,0.0816,0.0817,0.0818,0.074,0.0737,0.0734,0,0,0,0,0,0,0,0,0,0,0,0,0,0.0975,0.1037,0.0908,0.089,0.0888,0.0833,0.0831,0.083,0.0816,0.0816,0.0817,0.0818,0.0741,0.0737,0.0733,0.0691,0,0,0.0721,0.0719,0,0,0,0,0,0,0,0,0.0979,0.097,0.0894,0.0891,0.0888,0.0834,0.0849,0.0783,0.0815,0.0843,0.0818,0.0819,0.077,0.0764,0.0747,0.0687,0.0684,0.0721,0.0718,0.0717,0.0715,0,0,0,0,0,0,0,0.0983,0.0973,0.0878,0.0892,0.0889,0.0885,0.0877,0.0836,0.0802,0.0841,0.0839,0.0831,0.0769,0.0751,0.0746,0.0682,0.0721,0.0717,0.0715,0.0713,0.0584,0.0583,0,0,0,0,0,0,0.0991,0.0977,0.088,0.0876,0.0937,0.0882,0.0873,0.0851,0.0803,0.0796,0.083,0.083,0.0758,0.075,0.0743,0.069,0.0717,0.0713,0.0711,0.0585,0.0583,0.0582,0,0,0,0,0,0,0.0994,0.0982,0.0883,0.0926,0.0913,0.0879,0.0854,0.0849,0.0831,0.0795,0.0788,0.0818,0.0758,0.0748,0.0704,0.0687,0.0711,0.0707,0.0586,0.0584,0.0583,0.0584,0,0,0,0,0,0,0.0998,0.0984,0.0967,0.0926,0.0911,0.0846,0.0853,0.0847,0.0825,0.0824,0.0782,0.0776,0.0758,0.071,0.07,0.0682,0.0704,0.0587,0.0585,0.0583,0.0586,0.0583,0.0581,0,0,0,0,0,0.1002,0.097,0.0966,0.0955,0.089,0.0845,0.0836,0.0817,0.0823,0.0807,0.0783,0.0777,0.0691,0.0705,0.0694,0.0675,0.0588,0.0586,0.0584,0.0587,0.0584,0.0581,0,0,0,0,0,0,0.101,0.0964,0.096,0.0913,0.0883,0.0843,0.0821,0.0814,0.0781,0.0782,0.0758,0.0749,0.0706,0.0686,0.0703,0.0631,0.064,0.0635,0.0646,0.0643,0.064,0.0646,0.0701,0,0,0,0,0,0.1006,0.0974,0.0936,0.0898,0.0884,0.0855,0.0835,0.0822,0.079,0.0777,0.075,0.0719,0.0685,0.0663,0.0629,0.0583,0.0573,0.0564,0.0561,0.056,0.0556,0.053,0.0526,0.0575,0.0575,0.0575,0,0,0.0998,0.0969,0.095,0.0899,0.0874,0.0842,0.0844,0.0809,0.0785,0.0772,0.0728,0.0708,0.0671,0.0626,0.0604,0.0608,0.054,0.0557,0.0555,0.0552,0.0527,0.0523,0.0519,0.0573,0.0573,0.0573,0,0,0.0966,0.0941,0.0908,0.0883,0.0846,0.0827,0.0819,0.078,0.0766,0.0722,0.0712,0.0682,0.0623,0.0598,0.0577,0.0537,0.0531,0.0527,0.0514,0.0489,0.0486,0.0482,0.0468,0.0463,0.0523,0.0523,0.0523,0,0.0961,0.0911,0.0891,0.0857,0.0835,0.0822,0.0788,0.0765,0.0718,0.0704,0.0708,0.0635,0.0609,0.0558,0.0548,0.0532,0.0522,0.0531,0.0488,0.0484,0.048,0.0467,0.0461,0.0523,0.0523,0.0523,0.0523,0,0.0906,0.0872,0.0849,0.0805,0.0781,0.0747,0.0722,0.0699,0.0689,0.067,0.0626,0.0595,0.0555,0.0542,0.0531,0.0489,0.0492,0.0493,0.0501,0.0476,0.0463,0.0457,0.0522,0.0523,0.0523,0.0523,0,0,0.0877,0.0823,0.0815,0.0795,0.0754,0.0727,0.0692,0.0654,0.0635,0.0604,0.0574,0.0525,0.0525,0.0502,0.0488,0.0467,0.0437,0.0469,0.0468,0.0465,0.039,0.039,0.0384,0.0433,0.0432,0.0431,0.0393,0,0.084,0.0779,0.076,0.0708,0.0677,0.0664,0.0634,0.0606,0.0587,0.0557,0.0536,0.0502,0.0505,0.0491,0.0469,0.0446,0.0422,0.0448,0.0405,0.0404,0.0415,0.0377,0.0377,0.0343,0.0387,0.0387,0.0386,0,0.079,0.0758,0.0703,0.0666,0.0652,0.0626,0.0589,0.0561,0.0528,0.0516,0.0491,0.0479,0.0443,0.0453,0.0402,0.0421,0.0402,0.0388,0.0386,0.0381,0.0394,0.0372,0.0331,0.0326,0.0377,0.0378,0.0379,0,0.0774,0.0718,0.0678,0.0661,0.0617,0.0599,0.0579,0.0548,0.0526,0.0494,0.048,0.0444,0.0424,0.0397,0.0376,0.0385,0.0327,0.0336,0.0316,0.0317,0.0304,0.0306,0.026,0.0292,0.0292,0.0292,0.0293,0,0.0735,0.0703,0.067,0.0646,0.0609,0.0588,0.0551,0.0532,0.0503,0.0475,0.0462,0.0435,0.0409,0.0379,0.0362,0.0323,0.0314,0.0304,0.03,0.0305,0.0306,0.0292,0.0294,0.0291,0.0291,0.0292,0.0292,0,0.0712,0.0689,0.0645,0.0607,0.0597,0.0571,0.0538,0.0514,0.0495,0.0459,0.045,0.042,0.0384,0.036,0.0314,0.0303,0.026,0.0257,0.0271,0.0269,0.0252,0.0254,0.0196,0.0188,0.0225,0.0225,0.0224,0,0.0689,0.0663,0.0623,0.0603,0.0584,0.0552,0.053,0.0508,0.0486,0.0447,0.0428,0.0391,0.0361,0.0303,0.0277,0.0242,0.0238,0.022,0.0232,0.0239,0.0238,0.024,0.0237,0.0218,0.0218,0.0218,0.0217,0,0.065,0.0641,0.061,0.0575,0.0549,0.0521,0.0492,0.0476,0.045,0.0425,0.0389,0.0365,0.0319,0.0282,0.0245,0.0225,0.0217,0.0214,0.0207,0.0213,0.0222,0.0217,0.0266,0.0215,0.0215,0.0216,0.0216,0.0216,0.0626,0.0604,0.0572,0.0538,0.0514,0.0488,0.0464,0.0442,0.0411,0.0372,0.0361,0.0323,0.0291,0.024,0.0219,0.0189,0.0191,0.0182,0.0179,0.0177,0.0178,0.0227,0.0182,0.0182,0.0182,0.0182,0.0182,0,0.0588,0.0567,0.0536,0.0497,0.047,0.0466,0.0434,0.0412,0.0379,0.035,0.0321,0.0279,0.0244,0.0215,0.0179,0.016,0.0156,0.0151,0.0153,0.0148,0.0178,0.0187,0.0156,0.0156,0.0156,0.0156,0.0156,0.0156,0.0565,0.0526,0.0512,0.0462,0.0441,0.0404,0.0386,0.0362,0.0339,0.0293,0.0264,0.0246,0.0217,0.0179,0.0147,0.0139,0.0127,0.0123,0.0115,0.0143,0.0146,0.0149,0.0157,0.0121,0.0121,0.0088,0.0088,0.0088]}]]